Location: Ajisawe
(8.4333°N, 4.3833°E)
Time: 01:06:45
(UTC+00:00)

Courier 1B Rocket - Pass Details

Date: 01 May 2021
Orbit: 920 x 1202 km, 28.3° (Epoch: 13 May)

Event Time Altitude Azimuth Distance (km) Brightness Sun altitude
Rises 17:09:15 0° 314° (NW) 3,542 9.1 9.5°
Reaches altitude 10° 17:13:53 10° 345° (NNW) 2,609 7.7 8.4°
Maximum altitude 17:16:07 12° 6° (N) 2,483 7.3 7.8°
Drops below altitude 10° 17:18:23 10° 28° (NNE) 2,638 7.2 7.3°
Sets 17:23:07 0° 58° (ENE) 3,633 7.6 6.1°
